2023/01/26 00:00:00,81.2,-7.3
2023/01/26 00:10:00,80.9,-7.7
2023/01/26 00:20:00,80.7,-8.4
2023/01/26 00:30:00,80.6,-8.4
2023/01/26 00:40:00,80.7,-8.1
2023/01/26 00:50:00,80.6,-8.2
2023/01/26 01:00:00,80.5,-8.2
2023/01/26 01:10:00,80.4,-8.3
2023/01/26 01:20:00,80.4,-8.4
2023/01/26 01:30:00,80.2,-8.5
2023/01/26 01:40:00,80.1,-8.8
2023/01/26 01:50:00,79.9,-8.4
2023/01/26 02:00:00,79.8,-8.6
2023/01/26 02:10:00,79.7,-8.4
2023/01/26 02:20:00,79.5,-8.2
2023/01/26 02:30:00,79.4,-8.3
2023/01/26 02:40:00,79.3,-8.8
2023/01/26 02:50:00,79.2,-8.1
2023/01/26 03:00:00,79.0,-7.6
2023/01/26 03:10:00,78.9,-7.4
2023/01/26 03:20:00,78.8,-7.3
2023/01/26 03:30:00,78.7,-7.1
2023/01/26 03:40:00,78.6,-7.2
2023/01/26 03:50:00,78.5,-6.9
2023/01/26 04:00:00,78.4,-7.2
2023/01/26 04:10:00,78.3,-7.3
2023/01/26 04:20:00,78.2,-6.7
2023/01/26 04:30:00,78.3,-6.7
2023/01/26 04:40:00,78.4,-6.7
2023/01/26 04:50:00,78.3,-6.6
2023/01/26 05:00:00,78.1,-6.2
2023/01/26 05:10:00,78.0,-6.5
2023/01/26 05:20:00,77.7,-6.4
2023/01/26 05:30:00,77.7,-6.0
2023/01/26 05:40:00,77.7,-6.1
2023/01/26 05:50:00,77.5,-5.3
2023/01/26 06:00:00,77.3,-5.5
2023/01/26 06:10:00,77.2,-5.3
2023/01/26 06:20:00,77.0,-5.0
2023/01/26 06:30:00,76.9,-5.2
2023/01/26 06:40:00,76.9,-4.9
2023/01/26 06:50:00,77.0,-5.1
2023/01/26 07:00:00,76.9,-5.0
2023/01/26 07:10:00,76.9,-5.0
2023/01/26 07:20:00,77.0,-5.5
2023/01/26 07:30:00,77.0,-5.0
2023/01/26 07:40:00,76.9,-4.9
2023/01/26 07:50:00,76.7,-4.8
2023/01/26 08:00:00,76.5,-4.6
2023/01/26 08:10:00,76.3,-4.5
2023/01/26 08:20:00,76.1,-3.9
2023/01/26 08:30:00,76.0,-4.0
2023/01/26 08:40:00,76.0,-3.9
2023/01/26 08:50:00,76.0,-3.6
2023/01/26 09:00:00,76.0,-3.4
2023/01/26 09:10:00,75.8,-3.2
2023/01/26 09:20:00,75.6,-2.4
2023/01/26 09:30:00,75.4,-2.4
2023/01/26 09:40:00,75.4,-2.8
2023/01/26 09:50:00,75.4,-2.4
2023/01/26 10:00:00,75.2,-2.2
2023/01/26 10:10:00,75.0,-2.1
2023/01/26 10:20:00,74.8,-2.8
2023/01/26 10:30:00,74.8,-3.2
2023/01/26 10:40:00,74.8,-3.0
2023/01/26 10:50:00,74.9,-2.8
2023/01/26 11:00:00,74.9,-2.9
2023/01/26 11:10:00,74.8,-2.3
2023/01/26 11:20:00,74.7,-1.4
2023/01/26 11:30:00,74.5,-0.8
2023/01/26 11:40:00,74.4,-1.2
2023/01/26 11:50:00,74.3,-0.9
2023/01/26 12:00:00,74.3, 0.0
2023/01/26 12:10:00,74.3,-1.3
2023/01/26 12:20:00,74.1,-0.9
2023/01/26 12:30:00,73.9,-0.8
2023/01/26 12:40:00,73.6,-1.1
2023/01/26 12:50:00,73.5,-1.3
2023/01/26 13:00:00,73.3,-1.2
2023/01/26 13:10:00,73.2,-1.1
2023/01/26 13:20:00,73.3,-1.4
2023/01/26 13:30:00,73.2,-1.8
2023/01/26 13:40:00,73.1,-1.9
2023/01/26 13:50:00,73.2,-2.1
2023/01/26 14:00:00,73.2,-1.8
2023/01/26 14:10:00,73.4,-1.5
2023/01/26 14:20:00,73.2,-1.8
2023/01/26 14:30:00,73.0,-1.8
2023/01/26 14:40:00,73.3,-1.9
2023/01/26 14:50:00,73.5,-2.0
2023/01/26 15:00:00,73.4,-1.7
2023/01/26 15:10:00,73.2,-1.4
2023/01/26 15:20:00,73.0,-1.5
2023/01/26 15:30:00,72.9,-1.9
2023/01/26 15:40:00,72.9,-2.4
2023/01/26 15:50:00,72.9,-2.4
2023/01/26 16:00:00,72.8,-2.5
2023/01/26 16:10:00,72.7,-2.5
2023/01/26 16:20:00,72.5,-2.4
2023/01/26 16:30:00,72.4,-2.5
2023/01/26 16:40:00,72.4,-2.2
2023/01/26 16:50:00,72.2,-2.7
2023/01/26 17:00:00,72.1,-2.4
2023/01/26 17:10:00,71.9,-2.5
2023/01/26 17:20:00,71.7,-2.4
2023/01/26 17:30:00,71.6,-2.6
2023/01/26 17:40:00,71.5,-3.1
2023/01/26 17:50:00,71.4,-2.8
2023/01/26 18:00:00,71.4,-3.1
2023/01/26 18:10:00,71.4,-3.1
2023/01/26 18:20:00,71.2,-3.2
2023/01/26 18:30:00,71.1,-3.3
2023/01/26 18:40:00,71.0,-3.2
2023/01/26 18:50:00,70.9,-3.3
2023/01/26 19:00:00,70.8,-3.1
2023/01/26 19:10:00,70.7,-3.1
2023/01/26 19:20:00,70.6,-3.3
2023/01/26 19:30:00,70.5,-3.1
2023/01/26 19:40:00,70.4,-3.3
2023/01/26 19:50:00,70.2,-3.1
2023/01/26 20:00:00,70.2,-2.9
2023/01/26 20:10:00,70.0,-3.2
2023/01/26 20:20:00,70.0,-3.4
2023/01/26 20:30:00,69.9,-2.9
2023/01/26 20:40:00,69.9,-3.2
2023/01/26 20:50:00,69.8,-3.0
2023/01/26 21:00:00,69.6,-3.1
2023/01/26 21:10:00,69.5,-2.8
2023/01/26 21:20:00,69.5,-3.2
2023/01/26 21:30:00,69.4,-3.3
2023/01/26 21:40:00,69.3,-3.2
2023/01/26 21:50:00,69.2,-3.2
2023/01/26 22:00:00,69.0,-3.2
2023/01/26 22:10:00,69.1,-2.9
2023/01/26 22:20:00,69.0,-3.3
2023/01/26 22:30:00,68.9,-3.0
2023/01/26 22:40:00,68.6,-3.5
2023/01/26 22:50:00,68.4,-3.1
2023/01/26 23:00:00,68.4,-3.2
2023/01/26 23:10:00,68.3,-3.2
2023/01/26 23:20:00,68.2,-3.4
2023/01/26 23:30:00,68.1,-3.7
2023/01/26 23:40:00,68.1,-3.4
2023/01/26 23:50:00,68.0,-3.4
